Simultaneous Nadir Overpasses (SNOs) Predictions

Prediction of SNOs between FY3D and NOAA-19 Satellite Orbit:

Table of predicted SNOs for the next 14.0 days since TLE Epoch: 6/3/2023
Index Date (FY3D) Time (FY3D) Lat,Lon (FY3D) SZA (FY3D ) Date (NOAA-19) Time (NOAA-19) Lat,Lon (NOAA-19) SZA (NOAA-19 ) Distance(km) Time Diff (sec)
1 06/05/2023 16:38:34 -76.13, 102.93 126.40 06/05/2023 16:37:29 -76.13, 99.41 126.24 94.06 65
2 06/05/2023 17:29:30 76.58, -91.44 54.11 06/05/2023 17:28:18 76.58, -91.61 54.12 4.44 72
3 06/05/2023 18:20:16 -76.59, 75.82 125.88 06/05/2023 18:19:17 -76.61, 75.80 125.85 2.29 59
4 06/05/2023 19:11:02 76.60,-116.90 54.12 06/05/2023 19:10:16 76.62,-116.91 54.16 2.61 46
5 06/05/2023 20:01:48 -76.62, 50.35 125.87 06/05/2023 20:01:16 -76.62, 50.32 125.86 0.92 32
6 06/05/2023 20:52:34 76.62,-142.36 54.14 06/05/2023 20:52:15 76.63,-142.39 54.15 0.89 19
7 06/05/2023 21:43:20 -76.64, 24.89 125.85 06/05/2023 21:43:15 -76.62, 24.84 125.86 2.17 5
8 06/05/2023 22:34:06 76.64,-167.83 54.16 06/05/2023 22:34:14 76.63,-167.86 54.15 1.55 8
9 06/05/2023 23:24:52 -76.66, -0.57 125.83 06/05/2023 23:25:13 -76.67, -0.46 125.83 3.01 21
10 06/06/2023 00:15:38 76.67, 166.71 54.17 06/06/2023 00:16:13 76.64, 166.66 54.14 3.41 35
11 06/06/2023 01:06:24 -76.68, -26.04 125.82 06/06/2023 01:07:12 -76.67, -25.95 125.84 2.59 48
12 06/06/2023 01:57:10 76.69, 141.24 54.19 06/06/2023 01:58:11 76.68, 141.36 54.17 3.00 61
13 06/06/2023 02:47:57 -76.74, -51.68 125.75 06/06/2023 02:49:11 -76.67, -51.43 125.84 10.12 74



Historial Predications of SNOs between FY3D and NOAA-19
